Regional Weather Roundup
Issued by NWS

Home | Current Version | Previous Version | Graphics & Text | Print | Product List | Glossary Off
Versions: 1 2 3 4 5 6 7 8 9 10 11 12 13 14 15 16 17 18 19 20 21 22 23 24 25 26 27 28 29 30 31 32 33 34 35 36 37 38 39 40 41 42 43 44 45 46 47 48 49 50

000
ASUS44 KFWD 261215
RWRTX
NORTH TEXAS HOURLY WEATHER ROUNDUP
NATIONAL WEATHER SERVICE FORT WORTH TX
700 AM CDT MON SEP 26 2016

NOTE: "FAIR" INDICATES FEW OR NO CLOUDS BELOW 12,000 FEET WITH NO
SIGNIFICANT WEATHER AND/OR OBSTRUCTIONS TO VISIBILITY.

TXZ118-119-261300-
DALLAS/FORT WORTH METROPLEX

CITY           SKY/WX    TMP DP  RH WIND       PRES   REMARKS
DFW AIRPORT    CLOUDY    68  58  70 N17G24    30.12R
6HR MIN TEMP:  68; 6HR MAX TEMP:  72; 6HR PCP: TRACE;

DALLAS LOVE    LGT RAIN  65  62  90 N15G22    30.12R FOG
6HR MIN TEMP:  65; 6HR MAX TEMP:  73; 6HR PCP:  1.26;

FTW MEACHAM    CLOUDY    66  56  70 N10       30.14R
6HR MIN TEMP:  65; 6HR MAX TEMP:  71; 6HR PCP: TRACE;

DAL-EXECUTIVE  HVY RAIN  64  63  96 N8        30.12S FOG
6HR MIN TEMP:  64; 6HR MAX TEMP:  73; 6HR PCP:  0.68;

FTW-ALLIANCE   CLOUDY    65  55  70 N14       30.15R
6HR MIN TEMP:  64; 6HR MAX TEMP:  70; 6HR PCP: TRACE;

FTW-NAS-JRB    CLOUDY    66  56  70 N12       30.15R
6HR MIN TEMP:  66; 6HR MAX TEMP:  71; 6HR PCP: TRACE;

FTW-SPINKS     CLOUDY    63  61  94 N16       30.15S
ARLINGTON      LGT RAIN  66  62  87 N7        30.14R
6HR MIN TEMP:  66; 6HR MAX TEMP:  73; 6HR PCP:  0.01;

GRAND PRAIRIE  CLOUDY    64  64 100 N7        30.15R
ADDISON        CLOUDY    64  64 100 N13G24    30.13R
MESQUITE       MOCLDY    66  64  94 N13G20    30.11R
LANCASTER      CLOUDY    66  63  89 N16G23    30.12R
6HR MIN TEMP:  66; 6HR MAX TEMP:  73; 6HR PCP:  0.01;

$$

TXZ091>094-102>105-117-120-121-131>134-261300-
NORTH CENTRAL TEXAS

CITY           SKY/WX    TMP DP  RH WIND       PRES   REMARKS
SHRMAN/DENISON CLOUDY    65  59  80 N14G21    30.16S
6HR MIN TEMP:  64; 6HR MAX TEMP:  68; 6HR PCP:  0.03;

GAINESVILLE      N/A     61  56  83 N8        30.18S
6HR MIN TEMP:  60; 6HR MAX TEMP:  64; 6HR PCP:  0.17;

BOWIE          CLOUDY    64  56  77 N6        30.19R
6HR MIN TEMP:  64; 6HR MAX TEMP:  65;

BRIDGEPORT     CLOUDY    64  58  82 N7        30.20R
6HR MIN TEMP:  62; 6HR MAX TEMP:  66;

DECATUR        CLOUDY    61  57  87 NE10G17   30.17R
6HR MIN TEMP:  60; 6HR MAX TEMP:  65;

DENTON         CLOUDY    64  56  75 N15       30.15R
6HR MIN TEMP:  63; 6HR MAX TEMP:  68;

MCKINNEY       RAIN      63  61  93 N12       30.12S FOG
6HR MIN TEMP:  62; 6HR MAX TEMP:  69; 6HR PCP:  1.97;

GREENVILLE     DRIZZLE   66  63  88 N9        30.11R
ROCKWALL       RAIN      64  64  99 N12       30.11R
6HR MIN TEMP:  64; 6HR MAX TEMP:  70; 6HR PCP:  0.05;

TERRELL        CLOUDY    68  63  84 N14       30.11R
6HR MIN TEMP:  68; 6HR MAX TEMP:  73; 6HR PCP: TRACE;

WAXAHACHIE     DRIZZLE   65  65 100 N12G18    30.12S
6HR MIN TEMP:  65; 6HR MAX TEMP:  72;

CLEBURNE       CLOUDY    64  63  94 N14       30.15R
GRANBURY       CLOUDY    66  58  76 N12G17    30.17R
6HR MIN TEMP:  65; 6HR MAX TEMP:  71; 6HR PCP:  0.12;

$$

TXZ083>090-098>101-113>116-127>130-139>142-154-155-261300-
WESTERN NORTH TEXAS

CITY           SKY/WX    TMP DP  RH WIND       PRES   REMARKS
WICHITA FALLS  CLOUDY    62  55  77 N9        30.20R
6HR MIN TEMP:  62; 6HR MAX TEMP:  64;

WF-KICKAPOO    CLOUDY    65  55  72 N9        30.23R
6HR MIN TEMP:  65; 6HR MAX TEMP:  66;

VERNON         CLOUDY    62  52  70 N8        30.26R
6HR MIN TEMP:  60; 6HR MAX TEMP:  77;

ABILENE        CLOUDY    61  55  81 N9        30.23R
6HR MIN TEMP:  60; 6HR MAX TEMP:  61; 6HR PCP: TRACE;

ABILENE-DYESS  CLOUDY    61  52  72 NE12      30.21S
6HR MIN TEMP:  61; 6HR MAX TEMP:  61; 6HR PCP: TRACE;

CISCO          CLOUDY    61  59  94 N12       30.20S
BRECKENRIDGE     N/A     62  60  93 N3        30.21R
6HR MIN TEMP:  62; 6HR MAX TEMP:  63;

GRAHAM         CLOUDY    62  57  82 N6        30.18S
6HR MIN TEMP:  61; 6HR MAX TEMP:  62;

MINERAL WELLS  CLOUDY    64  55  72 N9        30.16R
6HR MIN TEMP:  64; 6HR MAX TEMP:  65;

STEPHENVILLE   CLOUDY    62  58  87 N14G22    30.19R
6HR MIN TEMP:  62; 6HR MAX TEMP:  66;

COMANCHE       CLOUDY    61  61 100 N10       30.17R
6HR MIN TEMP:  61; 6HR MAX TEMP:  66; 6HR PCP:  0.10;

BROWNWOOD      CLOUDY    63  59  88 N9G17     30.17R
COLEMAN        LGT RAIN  61  57  85 N14       30.19R
6HR MIN TEMP:  61; 6HR MAX TEMP:  64;

$$

TXZ143>147-156>162-174-175-261300-
CENTRAL TEXAS

CITY           SKY/WX    TMP DP  RH WIND       PRES   REMARKS
WACO           LGT RAIN  69  67  93 N13       30.09R
6HR MIN TEMP:  69; 6HR MAX TEMP:  74; 6HR PCP: TRACE;

WACO-TSTC      CLOUDY    70  66  88 N12G17    30.10
WACO-MCGREGOR  CLOUDY    69  67  93 N15       30.10R
6HR MIN TEMP:  69; 6HR MAX TEMP:  74; 6HR PCP:  0.11;

HILLSBORO      CLOUDY    66  63  91 N13       30.11R
6HR MIN TEMP:  66; 6HR MAX TEMP:  73;

CORSICANA      CLOUDY    69  65  86 N9        30.10R
6HR MIN TEMP:  69; 6HR MAX TEMP:  74; 6HR PCP: TRACE;

MEXIA          CLOUDY    69  67  96 NW7       30.07R
6HR MIN TEMP:  68; 6HR MAX TEMP:  73;

HEARNE         CLOUDY    72  72  99 CALM      30.06S
6HR MIN TEMP:  72; 6HR MAX TEMP:  72;

CAMERON        CLOUDY    73  72  96 NE3       30.06R
6HR MIN TEMP:  72; 6HR MAX TEMP:  73; 6HR PCP:  0.01;

TEMPLE         LGT RAIN  70  68  94 N13       30.09R
6HR MIN TEMP:  71; 6HR MAX TEMP:  73; 6HR PCP: TRACE;

KILLEEN        LGT RAIN  68  68 100 N15       30.09R FOG
6HR MIN TEMP:  69; 6HR MAX TEMP:  72; 6HR PCP:  0.12;

KILLEEN-SKYLRK CLOUDY    69  68  96 N18       30.09R
6HR MIN TEMP:  69; 6HR MAX TEMP:  73; 6HR PCP:  0.04;

FORT HOOD      CLOUDY    68  67  97 N8        30.07R
6HR MIN TEMP:  68; 6HR MAX TEMP:  71; 6HR PCP: TRACE;

GATESVILLE     CLOUDY    66  66 100 N12       30.13R FOG
HAMILTON       DRIZZLE   64  64 100 NE14      30.15R
6HR MIN TEMP:  64; 6HR MAX TEMP:  72; 6HR PCP:  0.10;

LAMPASAS       LGT RAIN  65  65  97 N10       30.10R
6HR MIN TEMP:  65; 6HR MAX TEMP:  73; 6HR PCP:  0.50;

$$

TXZ095>097-106>112-122>126-135>138-148>153-164>167-261300-
EAST TEXAS

CITY           SKY/WX    TMP DP  RH WIND       PRES   REMARKS
PARIS          CLOUDY    66  63  88 N14       30.11R
6HR MIN TEMP:  66; 6HR MAX TEMP:  72;

SULPHUR SPRNGS CLOUDY    69  65  85 N12       30.12R
6HR MIN TEMP:  69; 6HR MAX TEMP:  73;

MOUNT PLEASANT CLOUDY    72  65  80 N7        30.09R
6HR MIN TEMP:  72; 6HR MAX TEMP:  75;

GILMER         CLOUDY    72  69  91 NW5       30.07R
6HR MIN TEMP:  72; 6HR MAX TEMP:  73;

MINEOLA        CLOUDY    70  66  88 N5        30.09R
TYLER          CLOUDY    72  70  93 N7        30.07R
6HR MIN TEMP:  72; 6HR MAX TEMP:  73; 6HR PCP: TRACE;

LONGVIEW       CLOUDY    72  71  97 W6        30.06R
6HR MIN TEMP:  70; 6HR MAX TEMP:  72;

MARSHALL       CLOUDY    70  68  92 N3        30.07R
6HR MIN TEMP:  70; 6HR MAX TEMP:  73;

ATHENS         CLOUDY    68  68 100 N7        30.06R
PALESTINE      CLOUDY    71  71 100 NW6       30.07R
JACKSONVILLE   CLOUDY    71  71 100 N3        30.07S
HENDERSON      RAIN      72  72 100 N7        30.07R
6HR MIN TEMP:  70; 6HR MAX TEMP:  72; 6HR PCP:  0.43;

CENTER         CLOUDY    73  71  95 NW3       30.05R
6HR MIN TEMP:  72; 6HR MAX TEMP:  73;

NACOGDOCHES    CLOUDY    72  70  94 NW3       30.03R
6HR MIN TEMP:  72; 6HR MAX TEMP:  72;

LUFKIN         CLOUDY    70  70 100 CALM      30.03S FOG
6HR MIN TEMP:  70; 6HR MAX TEMP:  71;

$$

SUPPLEMENTAL OBSERVATIONS (CENTRAL)

CITY           SKY/WX    TMP DP  RH WIND       PRES   REMARKS
DENISON DAM      N/A     64  55  72 N10         N/A
PAT MAYSE LAKE   N/A     64  63  94 NW9         N/A
GREENVILLE       N/A     66  61  82 N16G22      N/A
CEDAR HILL       N/A     64  63  94 NE10G20     N/A
LAKE LIMESTONE   N/A     73  72  94 N6          N/A
MC1F1C2F2C3F3C4F4C5F5C6F6C7F7C8F8C9!



USA.gov is the U.S. government's official web portal to all federal, state and local government web resources and services.